Year,Month,Day,Hour,Minute,Value (Times are PST for barometer in hPa)
2019,02,14,00,00,1004.19
2019,02,14,00,01,1004.17
2019,02,14,00,02,1004.20
2019,02,14,00,03,1004.11
2019,02,14,00,04,1004.17
2019,02,14,00,05,1004.13
2019,02,14,00,06,1004.10
2019,02,14,00,07,1004.01
2019,02,14,00,08,1003.93
2019,02,14,00,09,1003.90
2019,02,14,00,10,1003.93
2019,02,14,00,11,1004.00
2019,02,14,00,12,1004.00
2019,02,14,00,13,1003.87
2019,02,14,00,14,1003.93
2019,02,14,00,15,1003.93
2019,02,14,00,16,1003.80
2019,02,14,00,17,1003.83
2019,02,14,00,18,1003.83
2019,02,14,00,19,1003.79
2019,02,14,00,20,1003.79
2019,02,14,00,21,1003.76
2019,02,14,00,22,1003.79
2019,02,14,00,23,1003.66
2019,02,14,00,24,1003.82
2019,02,14,00,25,1003.76
2019,02,14,00,26,1003.79
2019,02,14,00,27,1003.79
2019,02,14,00,28,1003.69
2019,02,14,00,29,1003.66
2019,02,14,00,30,1003.76
2019,02,14,00,31,1003.70
2019,02,14,00,32,1003.66
2019,02,14,00,33,1003.69
2019,02,14,00,34,1003.69
2019,02,14,00,35,1003.76
2019,02,14,00,36,1003.70
2019,02,14,00,37,1003.73
2019,02,14,00,38,1003.69
2019,02,14,00,39,1003.69
2019,02,14,00,40,1003.69
2019,02,14,00,41,1003.73
2019,02,14,00,42,1003.76
2019,02,14,00,43,1003.67
2019,02,14,00,44,1003.66
2019,02,14,00,45,1003.62
2019,02,14,00,46,1003.66
2019,02,14,00,47,1003.59
2019,02,14,00,48,1003.62
2019,02,14,00,49,1003.59
2019,02,14,00,50,1003.56
2019,02,14,00,51,1003.56
2019,02,14,00,52,1003.56
2019,02,14,00,53,1003.49
2019,02,14,00,54,1003.49
2019,02,14,00,55,1003.49
2019,02,14,00,56,1003.35
2019,02,14,00,57,1003.32
2019,02,14,00,58,1003.39
2019,02,14,00,59,1003.32
2019,02,14,01,00,1003.25
2019,02,14,01,01,1003.22
2019,02,14,01,02,1003.22
2019,02,14,01,03,1003.18
2019,02,14,01,04,1003.22
2019,02,14,01,05,1003.22
2019,02,14,01,06,1003.15
2019,02,14,01,07,1003.25
2019,02,14,01,08,1003.16
2019,02,14,01,09,1003.25
2019,02,14,01,10,1003.22
2019,02,14,01,11,1003.18
2019,02,14,01,12,1003.18
2019,02,14,01,13,1003.18
2019,02,14,01,14,1003.18
2019,02,14,01,15,1003.18
2019,02,14,01,16,1003.18
2019,02,14,01,17,1003.25
2019,02,14,01,18,1003.15
2019,02,14,01,19,1003.18
2019,02,14,01,20,1003.15
2019,02,14,01,21,1003.12
2019,02,14,01,22,1003.15
2019,02,14,01,23,1003.09
2019,02,14,01,24,1003.15
2019,02,14,01,25,1003.05
2019,02,14,01,26,1003.08
2019,02,14,01,27,1003.12
2019,02,14,01,28,1003.05
2019,02,14,01,29,1003.05
2019,02,14,01,30,1003.05
2019,02,14,01,31,1003.14
2019,02,14,01,32,1003.12
2019,02,14,01,33,1003.12
2019,02,14,01,34,1003.08
2019,02,14,01,35,1003.18
2019,02,14,01,36,1003.12
2019,02,14,01,37,1003.08
2019,02,14,01,38,1003.17
2019,02,14,01,39,1003.15
2019,02,14,01,40,1003.22
2019,02,14,01,41,1003.06
2019,02,14,01,42,1003.18
2019,02,14,01,43,1003.09
2019,02,14,01,44,1003.08
2019,02,14,01,45,1003.08
2019,02,14,01,46,1003.05
2019,02,14,01,47,1003.05
2019,02,14,01,48,1003.05
2019,02,14,01,49,1003.01
2019,02,14,01,50,1002.91
2019,02,14,01,51,1002.98
2019,02,14,01,52,1002.79
2019,02,14,01,53,1002.81
2019,02,14,01,54,1002.88
2019,02,14,01,55,1002.88
2019,02,14,01,56,1002.91
2019,02,14,01,57,1002.85
2019,02,14,01,58,1002.88
2019,02,14,01,59,1002.91
2019,02,14,02,00,1002.91
2019,02,14,02,01,1002.98
2019,02,14,02,02,1002.88
2019,02,14,02,03,1002.88
2019,02,14,02,04,1002.85
2019,02,14,02,05,1002.88
2019,02,14,02,06,1002.78
2019,02,14,02,07,1002.84
2019,02,14,02,08,1002.85
2019,02,14,02,09,1002.74
2019,02,14,02,10,1002.74
2019,02,14,02,11,1002.61
2019,02,14,02,12,1002.67
2019,02,14,02,13,1002.57
2019,02,14,02,14,1002.51
2019,02,14,02,15,1002.47
2019,02,14,02,16,1002.44
2019,02,14,02,17,1002.47
2019,02,14,02,18,1002.47
2019,02,14,02,19,1002.47
2019,02,14,02,20,1002.37
2019,02,14,02,21,1002.46
2019,02,14,02,22,1002.44
2019,02,14,02,23,1002.38
2019,02,14,02,24,1002.44
2019,02,14,02,25,1002.41
2019,02,14,02,26,1002.34
2019,02,14,02,27,1002.27
2019,02,14,02,28,1002.27
2019,02,14,02,29,1002.41
2019,02,14,02,30,1002.34
2019,02,14,02,31,1002.25
2019,02,14,02,32,1002.27
2019,02,14,02,33,1002.34
2019,02,14,02,34,1002.30
2019,02,14,02,35,1002.27
2019,02,14,02,36,1002.21
2019,02,14,02,37,1002.24
2019,02,14,02,38,1002.20
2019,02,14,02,39,1002.20
2019,02,14,02,40,1002.17
2019,02,14,02,41,1002.17
2019,02,14,02,42,1002.13
2019,02,14,02,43,1002.10
2019,02,14,02,44,1002.10
2019,02,14,02,45,1002.00
2019,02,14,02,46,1001.90
2019,02,14,02,47,1001.86
2019,02,14,02,48,1001.80
2019,02,14,02,49,1001.80
2019,02,14,02,50,1001.83
2019,02,14,02,51,1001.77
2019,02,14,02,52,1001.76
2019,02,14,02,53,1001.73
2019,02,14,02,54,1001.73
2019,02,14,02,55,1001.63
2019,02,14,02,56,1001.69
2019,02,14,02,57,1001.69
2019,02,14,02,58,1001.63
2019,02,14,02,59,1001.66
2019,02,14,03,00,1001.63
2019,02,14,03,01,1001.66
2019,02,14,03,02,1001.73
2019,02,14,03,03,1001.66
2019,02,14,03,04,1001.66
2019,02,14,03,05,1001.72
2019,02,14,03,06,1001.57
2019,02,14,03,07,1001.56
2019,02,14,03,08,1001.49
2019,02,14,03,09,1001.42
2019,02,14,03,10,1001.46
2019,02,14,03,11,1001.42
2019,02,14,03,12,1001.46
2019,02,14,03,13,1001.46
2019,02,14,03,14,1001.37
2019,02,14,03,15,1001.32
2019,02,14,03,16,1001.25
2019,02,14,03,17,1001.22
2019,02,14,03,18,1001.12
2019,02,14,03,19,1001.12
2019,02,14,03,20,1001.12
2019,02,14,03,21,1001.12
2019,02,14,03,22,1001.12
2019,02,14,03,23,1001.03
2019,02,14,03,24,1001.02
2019,02,14,03,25,1001.18
2019,02,14,03,26,1001.15
2019,02,14,03,27,1001.12
2019,02,14,03,28,1001.05
2019,02,14,03,29,1001.12
2019,02,14,03,30,1001.08
2019,02,14,03,31,1001.08
2019,02,14,03,32,1001.02
2019,02,14,03,33,1001.05
2019,02,14,03,34,1001.11
2019,02,14,03,35,1001.12
2019,02,14,03,36,1001.19
2019,02,14,03,37,1001.09
2019,02,14,03,38,1001.21
2019,02,14,03,39,1001.09
2019,02,14,03,40,1001.08
2019,02,14,03,41,1001.12
2019,02,14,03,42,1001.12
2019,02,14,03,43,1001.12
2019,02,14,03,44,1001.08
2019,02,14,03,45,1001.08
2019,02,14,03,46,1001.05
2019,02,14,03,47,1001.02
2019,02,14,03,48,1000.95
2019,02,14,03,49,1000.98
2019,02,14,03,50,1001.02
2019,02,14,03,51,1001.02
2019,02,14,03,52,1000.98
2019,02,14,03,53,1000.95
2019,02,14,03,54,1000.95
2019,02,14,03,55,1000.92
2019,02,14,03,56,1000.92
2019,02,14,03,57,1000.85
2019,02,14,03,58,1000.88
2019,02,14,03,59,1000.85
2019,02,14,04,00,1000.88
2019,02,14,04,01,1000.85
2019,02,14,04,02,1000.85
2019,02,14,04,03,1000.81
2019,02,14,04,04,1000.85
2019,02,14,04,05,1000.88
2019,02,14,04,06,1000.76
2019,02,14,04,07,1000.81
2019,02,14,04,08,1000.85
2019,02,14,04,09,1000.78
2019,02,14,04,10,1000.81
2019,02,14,04,11,1000.81
2019,02,14,04,12,1000.78
2019,02,14,04,13,1000.65
2019,02,14,04,14,1000.68
2019,02,14,04,15,1000.59
2019,02,14,04,16,1000.61
2019,02,14,04,17,1000.58
2019,02,14,04,18,1000.61
2019,02,14,04,19,1000.61
2019,02,14,04,20,1000.52
2019,02,14,04,21,1000.60
2019,02,14,04,22,1000.61
2019,02,14,04,23,1000.58
2019,02,14,04,24,1000.52
2019,02,14,04,25,1000.54
2019,02,14,04,26,1000.61
2019,02,14,04,27,1000.49
2019,02,14,04,28,1000.51
2019,02,14,04,29,1000.45
2019,02,14,04,30,1000.48
2019,02,14,04,31,1000.44
2019,02,14,04,32,1000.38
2019,02,14,04,33,1000.43
2019,02,14,04,34,1000.31
2019,02,14,04,35,1000.34
2019,02,14,04,36,1000.31
2019,02,14,04,37,1000.27
2019,02,14,04,38,1000.34
2019,02,14,04,39,1000.28
2019,02,14,04,40,1000.21
2019,02,14,04,41,1000.10
2019,02,14,04,42,1000.01
2019,02,14,04,43,1000.07
2019,02,14,04,44,1000.00
2019,02,14,04,45,999.97
2019,02,14,04,46,999.90
2019,02,14,04,47,999.99
2019,02,14,04,48,999.88
2019,02,14,04,49,999.93
2019,02,14,04,50,999.87
2019,02,14,04,51,999.83
2019,02,14,04,52,999.83
2019,02,14,04,53,999.83
2019,02,14,04,54,999.83
2019,02,14,04,55,999.74
2019,02,14,04,56,999.80
2019,02,14,04,57,999.83
2019,02,14,04,58,999.73
2019,02,14,04,59,999.80
2019,02,14,05,00,999.83
2019,02,14,05,01,999.83
2019,02,14,05,02,999.87
2019,02,14,05,03,999.83
2019,02,14,05,04,999.90
2019,02,14,05,05,999.81
2019,02,14,05,06,999.76
2019,02,14,05,07,999.76
2019,02,14,05,08,999.73
2019,02,14,05,09,999.76
2019,02,14,05,10,999.76
2019,02,14,05,11,999.83
2019,02,14,05,12,999.80
2019,02,14,05,13,999.71
2019,02,14,05,14,999.64
2019,02,14,05,15,999.70
2019,02,14,05,16,999.73
2019,02,14,05,17,999.73
2019,02,14,05,18,999.73
2019,02,14,05,19,999.70
2019,02,14,05,20,999.70
2019,02,14,05,21,999.73
2019,02,14,05,22,999.66
2019,02,14,05,23,999.63
2019,02,14,05,24,999.70
2019,02,14,05,25,999.70
2019,02,14,05,26,999.57
2019,02,14,05,27,999.62
2019,02,14,05,28,999.59
2019,02,14,05,29,999.59
2019,02,14,05,30,999.56
2019,02,14,05,31,999.53
2019,02,14,05,32,999.49
2019,02,14,05,33,999.49
2019,02,14,05,34,999.39
2019,02,14,05,35,999.30
2019,02,14,05,36,999.29
2019,02,14,05,37,999.20
2019,02,14,05,38,999.19
2019,02,14,05,39,999.15
2019,02,14,05,40,999.12
2019,02,14,05,41,999.19
2019,02,14,05,42,999.26
2019,02,14,05,43,999.19
2019,02,14,05,44,999.19
2019,02,14,05,45,999.26
2019,02,14,05,46,999.29
2019,02,14,05,47,999.26
2019,02,14,05,48,999.29
2019,02,14,05,49,999.26
2019,02,14,05,50,999.26
2019,02,14,05,51,999.19
2019,02,14,05,52,999.12
2019,02,14,05,53,999.19
2019,02,14,05,54,999.15
2019,02,14,05,55,999.12
2019,02,14,05,56,999.00
2019,02,14,05,57,999.02
2019,02,14,05,58,999.05
2019,02,14,05,59,998.95
2019,02,14,06,00,998.95
2019,02,14,06,01,998.92
2019,02,14,06,02,998.92
2019,02,14,06,03,998.85
2019,02,14,06,04,998.94
2019,02,14,06,05,998.92
2019,02,14,06,06,998.99
2019,02,14,06,07,998.92
2019,02,14,06,08,998.88
2019,02,14,06,09,998.85
2019,02,14,06,10,998.82
2019,02,14,06,11,998.82
2019,02,14,06,12,998.88
2019,02,14,06,13,998.88
2019,02,14,06,14,998.85
2019,02,14,06,15,998.82
2019,02,14,06,16,998.78
2019,02,14,06,17,998.87
2019,02,14,06,18,998.88
2019,02,14,06,19,998.85
2019,02,14,06,20,998.82
2019,02,14,06,21,998.85
2019,02,14,06,22,998.82
2019,02,14,06,23,998.82
2019,02,14,06,24,998.72
2019,02,14,06,25,998.71
2019,02,14,06,26,998.68
2019,02,14,06,27,998.71
2019,02,14,06,28,998.68
2019,02,14,06,29,998.58
2019,02,14,06,30,998.61
2019,02,14,06,31,998.65
2019,02,14,06,32,998.68
2019,02,14,06,33,998.61
2019,02,14,06,34,998.61
2019,02,14,06,35,998.58
2019,02,14,06,36,998.58
2019,02,14,06,37,998.52
2019,02,14,06,38,998.54
2019,02,14,06,39,998.61
2019,02,14,06,40,998.54
2019,02,14,06,41,998.58
2019,02,14,06,42,998.45
2019,02,14,06,43,998.41
2019,02,14,06,44,998.44
2019,02,14,06,45,998.41
2019,02,14,06,46,998.34
2019,02,14,06,47,998.34
2019,02,14,06,48,998.34
2019,02,14,06,49,998.24
2019,02,14,06,50,998.27
2019,02,14,06,51,998.31
2019,02,14,06,52,998.22
2019,02,14,06,53,998.17
2019,02,14,06,54,998.10
2019,02,14,06,55,998.10
2019,02,14,06,56,998.04
2019,02,14,06,57,998.04
2019,02,14,06,58,998.13
2019,02,14,06,59,997.96
2019,02,14,07,00,997.94
2019,02,14,07,01,997.94
2019,02,14,07,02,997.90
2019,02,14,07,03,997.80
2019,02,14,07,04,997.83
2019,02,14,07,05,997.80
2019,02,14,07,06,997.83
2019,02,14,07,07,997.83
2019,02,14,07,08,997.77
2019,02,14,07,09,997.77
2019,02,14,07,10,997.80
2019,02,14,07,11,997.73
2019,02,14,07,12,997.73
2019,02,14,07,13,997.73
2019,02,14,07,14,997.73
2019,02,14,07,15,997.73
2019,02,14,07,16,997.66
2019,02,14,07,17,997.66
2019,02,14,07,18,997.66
2019,02,14,07,19,997.60
2019,02,14,07,20,997.60
2019,02,14,07,21,997.53
2019,02,14,07,22,997.53
2019,02,14,07,23,997.59
2019,02,14,07,24,997.56
2019,02,14,07,25,997.53
2019,02,14,07,26,997.43
2019,02,14,07,27,997.43
2019,02,14,07,28,997.39
2019,02,14,07,29,997.33
2019,02,14,07,30,997.22
2019,02,14,07,31,997.28
2019,02,14,07,32,997.13
2019,02,14,07,33,997.16
2019,02,14,07,34,997.12
2019,02,14,07,35,997.09
2019,02,14,07,36,997.12
2019,02,14,07,37,997.02
2019,02,14,07,38,997.02
2019,02,14,07,39,996.93
2019,02,14,07,40,996.89
2019,02,14,07,41,996.92
2019,02,14,07,42,997.02
2019,02,14,07,43,996.99
2019,02,14,07,44,996.95
2019,02,14,07,45,996.76
2019,02,14,07,46,996.88
2019,02,14,07,47,996.85
2019,02,14,07,48,996.94
2019,02,14,07,49,996.85
2019,02,14,07,50,996.91
2019,02,14,07,51,996.85
2019,02,14,07,52,996.85
2019,02,14,07,53,996.92
2019,02,14,07,54,997.01
2019,02,14,07,55,996.89
2019,02,14,07,56,996.95
2019,02,14,07,57,996.92
2019,02,14,07,58,997.02
2019,02,14,07,59,997.02
2019,02,14,08,00,997.09
2019,02,14,08,01,997.05
2019,02,14,08,02,996.95
2019,02,14,08,03,997.02
2019,02,14,08,04,996.92
2019,02,14,08,05,996.95
2019,02,14,08,06,996.92
2019,02,14,08,07,996.95
2019,02,14,08,08,996.99
2019,02,14,08,09,996.78
2019,02,14,08,10,996.78
2019,02,14,08,11,996.85
2019,02,14,08,12,996.75
2019,02,14,08,13,996.68
2019,02,14,08,14,996.65
2019,02,14,08,15,996.61
2019,02,14,08,16,996.67
2019,02,14,08,17,996.55
2019,02,14,08,18,996.65
2019,02,14,08,19,996.61
2019,02,14,08,20,996.65
2019,02,14,08,21,996.61
2019,02,14,08,22,996.61
2019,02,14,08,23,996.58
2019,02,14,08,24,996.65
2019,02,14,08,25,996.61
2019,02,14,08,26,996.65
2019,02,14,08,27,996.61
2019,02,14,08,28,996.72
2019,02,14,08,29,996.61
2019,02,14,08,30,996.68
2019,02,14,08,31,996.61
2019,02,14,08,32,996.61
2019,02,14,08,33,996.61
2019,02,14,08,34,996.58
2019,02,14,08,35,996.58
2019,02,14,08,36,996.51
2019,02,14,08,37,996.48
2019,02,14,08,38,996.45
2019,02,14,08,39,996.38
2019,02,14,08,40,996.45
2019,02,14,08,41,996.34
2019,02,14,08,42,996.38
2019,02,14,08,43,996.34
2019,02,14,08,44,996.34
2019,02,14,08,45,996.31
2019,02,14,08,46,996.28
2019,02,14,08,47,996.34
2019,02,14,08,48,996.38
2019,02,14,08,49,996.38
2019,02,14,08,50,996.31
2019,02,14,08,51,996.34
2019,02,14,08,52,996.34
2019,02,14,08,53,996.28
2019,02,14,08,54,996.31
2019,02,14,08,55,996.24
2019,02,14,08,56,996.17
2019,02,14,08,57,996.31
2019,02,14,08,58,996.28
2019,02,14,08,59,996.17
2019,02,14,09,00,996.21
2019,02,14,09,01,996.17
2019,02,14,09,02,996.17
2019,02,14,09,03,996.11
2019,02,14,09,04,996.07
2019,02,14,09,05,996.07
2019,02,14,09,06,996.04
2019,02,14,09,07,996.14
2019,02,14,09,08,996.04
2019,02,14,09,09,996.11
2019,02,14,09,10,996.01
2019,02,14,09,11,996.01
2019,02,14,09,12,996.07
2019,02,14,09,13,995.94
2019,02,14,09,14,995.97
2019,02,14,09,15,995.97
2019,02,14,09,16,995.94
2019,02,14,09,17,995.84
2019,02,14,09,18,995.84
2019,02,14,09,19,995.90
2019,02,14,09,20,995.90
2019,02,14,09,21,995.94
2019,02,14,09,22,995.90
2019,02,14,09,23,995.94
2019,02,14,09,24,995.90
2019,02,14,09,25,995.84
2019,02,14,09,26,995.94
2019,02,14,09,27,995.94
2019,02,14,09,28,995.94
2019,02,14,09,29,995.87
2019,02,14,09,30,995.94
2019,02,14,09,31,995.84
2019,02,14,09,32,995.90
2019,02,14,09,33,995.80
2019,02,14,09,34,995.80
2019,02,14,09,35,995.80
2019,02,14,09,36,995.77
2019,02,14,09,37,995.73
2019,02,14,09,38,995.73
2019,02,14,09,39,995.77
2019,02,14,09,40,995.73
2019,02,14,09,41,995.77
2019,02,14,09,42,995.84
2019,02,14,09,43,995.70
2019,02,14,09,44,995.77
2019,02,14,09,45,995.77
2019,02,14,09,46,995.73
2019,02,14,09,47,995.77
2019,02,14,09,48,995.67
2019,02,14,09,49,995.70
2019,02,14,09,50,995.77
2019,02,14,09,51,995.67
2019,02,14,09,52,995.67
2019,02,14,09,53,995.67
2019,02,14,09,54,995.67
2019,02,14,09,55,995.67
2019,02,14,09,56,995.60
2019,02,14,09,57,995.63
2019,02,14,09,58,995.56
2019,02,14,09,59,995.63
2019,02,14,10,00,995.53
2019,02,14,10,01,995.67
2019,02,14,10,02,995.50
2019,02,14,10,03,995.56
2019,02,14,10,04,995.50
2019,02,14,10,05,995.53
2019,02,14,10,06,995.50
2019,02,14,10,07,995.46
2019,02,14,10,08,995.46
2019,02,14,10,09,995.46
2019,02,14,10,10,995.53
2019,02,14,10,11,995.55
2019,02,14,10,12,995.40
2019,02,14,10,13,995.26
2019,02,14,10,14,995.29
2019,02,14,10,15,995.40
2019,02,14,10,16,995.46
2019,02,14,10,17,995.40
2019,02,14,10,18,995.41
2019,02,14,10,19,995.53
2019,02,14,10,20,995.43
2019,02,14,10,21,995.36
2019,02,14,10,22,995.40
2019,02,14,10,23,995.33
2019,02,14,10,24,995.33
2019,02,14,10,25,995.36
2019,02,14,10,26,995.26
2019,02,14,10,27,995.33
2019,02,14,10,28,995.36
2019,02,14,10,29,995.40
2019,02,14,10,30,995.43
2019,02,14,10,31,995.40
2019,02,14,10,32,995.33
2019,02,14,10,33,995.29
2019,02,14,10,34,995.36
2019,02,14,10,35,995.26
2019,02,14,10,36,995.19
2019,02,14,10,37,995.16
2019,02,14,10,38,995.19
2019,02,14,10,39,995.23
2019,02,14,10,40,995.19
2019,02,14,10,41,995.23
2019,02,14,10,42,995.26
2019,02,14,10,43,995.19
2019,02,14,10,44,995.19
2019,02,14,10,45,995.16
2019,02,14,10,46,995.19
2019,02,14,10,47,995.12
2019,02,14,10,48,995.02
2019,02,14,10,49,994.99
2019,02,14,10,50,995.11
2019,02,14,10,51,994.99
2019,02,14,10,52,995.06
2019,02,14,10,53,995.16
2019,02,14,10,54,995.06
2019,02,14,10,55,995.09
2019,02,14,10,56,994.96
2019,02,14,10,57,994.96
2019,02,14,10,58,994.96
2019,02,14,10,59,994.96
2019,02,14,11,00,995.02
2019,02,14,11,01,995.02
2019,02,14,11,02,994.96
2019,02,14,11,03,994.98
2019,02,14,11,04,994.79
2019,02,14,11,05,994.85
2019,02,14,11,06,994.82
2019,02,14,11,07,994.89
2019,02,14,11,08,994.79
2019,02,14,11,09,994.72
2019,02,14,11,10,994.72
2019,02,14,11,11,994.72
2019,02,14,11,12,994.79
2019,02,14,11,13,994.79
2019,02,14,11,14,994.72
2019,02,14,11,15,994.68
2019,02,14,11,16,994.72
2019,02,14,11,17,994.68
2019,02,14,11,18,994.68
2019,02,14,11,19,994.65
2019,02,14,11,20,994.65
2019,02,14,11,21,994.62
2019,02,14,11,22,994.65
2019,02,14,11,23,994.62
2019,02,14,11,24,994.78
2019,02,14,11,25,994.62
2019,02,14,11,26,994.75
2019,02,14,11,27,994.65
2019,02,14,11,28,994.68
2019,02,14,11,29,994.59
2019,02,14,11,30,994.72
2019,02,14,11,31,994.62
2019,02,14,11,32,994.58
2019,02,14,11,33,994.58
2019,02,14,11,34,994.45
2019,02,14,11,35,994.41
2019,02,14,11,36,994.36
2019,02,14,11,37,994.52
2019,02,14,11,38,994.58
2019,02,14,11,39,994.58
2019,02,14,11,40,994.62
2019,02,14,11,41,994.41
2019,02,14,11,42,994.35
2019,02,14,11,43,994.38
2019,02,14,11,44,994.38
2019,02,14,11,45,994.28
2019,02,14,11,46,994.38
2019,02,14,11,47,994.38
2019,02,14,11,48,994.28
2019,02,14,11,49,994.31
2019,02,14,11,50,994.31
2019,02,14,11,51,994.38
2019,02,14,11,52,994.24
2019,02,14,11,53,994.14
2019,02,14,11,54,994.18
2019,02,14,11,55,994.07
2019,02,14,11,56,994.18
2019,02,14,11,57,994.11
2019,02,14,11,58,994.04
2019,02,14,11,59,994.04
2019,02,14,12,00,994.07
2019,02,14,12,01,994.07
2019,02,14,12,02,994.01
2019,02,14,12,03,994.11
2019,02,14,12,04,994.14
2019,02,14,12,05,994.07
2019,02,14,12,06,994.11
2019,02,14,12,07,994.14
2019,02,14,12,08,994.07
2019,02,14,12,09,994.07
2019,02,14,12,10,993.97
2019,02,14,12,11,993.94
2019,02,14,12,12,993.94
2019,02,14,12,13,993.84
2019,02,14,12,14,993.80
2019,02,14,12,15,993.77
2019,02,14,12,16,993.74
2019,02,14,12,17,993.67
2019,02,14,12,18,993.67
2019,02,14,12,19,993.63
2019,02,14,12,20,993.60
2019,02,14,12,21,993.53
2019,02,14,12,22,993.53
2019,02,14,12,23,993.53
2019,02,14,12,24,993.47
2019,02,14,12,25,993.47
2019,02,14,12,26,993.53
2019,02,14,12,27,993.53
2019,02,14,12,28,993.40
2019,02,14,12,29,993.47
2019,02,14,12,30,993.40
2019,02,14,12,31,993.47
2019,02,14,12,32,993.33
2019,02,14,12,33,993.36
2019,02,14,12,34,993.40
2019,02,14,12,35,993.36
2019,02,14,12,36,993.33
2019,02,14,12,37,993.30
2019,02,14,12,38,993.26
2019,02,14,12,39,993.30
2019,02,14,12,40,993.30
2019,02,14,12,41,993.36
2019,02,14,12,42,993.16
2019,02,14,12,43,993.16
2019,02,14,12,44,993.23
2019,02,14,12,45,993.16
2019,02,14,12,46,993.16
2019,02,14,12,47,993.13
2019,02,14,12,48,993.13
2019,02,14,12,49,993.13
2019,02,14,12,50,992.86
2019,02,14,12,51,992.99
2019,02,14,12,52,992.89
2019,02,14,12,53,992.92
2019,02,14,12,54,992.92
2019,02,14,12,55,992.92
2019,02,14,12,56,992.86
2019,02,14,12,57,992.89
2019,02,14,12,58,992.86
2019,02,14,12,59,992.82
2019,02,14,13,00,992.82
2019,02,14,13,01,992.72
2019,02,14,13,02,992.79
2019,02,14,13,03,992.72
2019,02,14,13,04,992.69
2019,02,14,13,05,992.69
2019,02,14,13,06,992.65
2019,02,14,13,07,992.62
2019,02,14,13,08,992.52
2019,02,14,13,09,992.58
2019,02,14,13,10,992.48
2019,02,14,13,11,992.52
2019,02,14,13,12,992.42
2019,02,14,13,13,992.38
2019,02,14,13,14,992.31
2019,02,14,13,15,992.24
2019,02,14,13,16,992.08
2019,02,14,13,17,992.14
2019,02,14,13,18,992.08
2019,02,14,13,19,992.11
2019,02,14,13,20,992.18
2019,02,14,13,21,992.14
2019,02,14,13,22,992.04
2019,02,14,13,23,992.11
2019,02,14,13,24,992.04
2019,02,14,13,25,991.98
2019,02,14,13,26,991.91
2019,02,14,13,27,991.91
2019,02,14,13,28,991.84
2019,02,14,13,29,991.91
2019,02,14,13,30,991.77
2019,02,14,13,31,991.94
2019,02,14,13,32,991.87
2019,02,14,13,33,991.91
2019,02,14,13,34,991.94
2019,02,14,13,35,991.87
2019,02,14,13,36,991.87
2019,02,14,13,37,991.87
2019,02,14,13,38,991.91
2019,02,14,13,39,991.87
2019,02,14,13,40,991.87
2019,02,14,13,41,991.84
2019,02,14,13,42,991.87
2019,02,14,13,43,991.87
2019,02,14,13,44,991.77
2019,02,14,13,45,991.77
2019,02,14,13,46,991.81
2019,02,14,13,47,991.87
2019,02,14,13,48,991.84
2019,02,14,13,49,991.81
2019,02,14,13,50,991.74
2019,02,14,13,51,991.77
2019,02,14,13,52,991.64
2019,02,14,13,53,991.67
2019,02,14,13,54,991.67
2019,02,14,13,55,991.67
2019,02,14,13,56,991.60
2019,02,14,13,57,991.53
2019,02,14,13,58,991.50
2019,02,14,13,59,991.60
2019,02,14,14,00,991.57
2019,02,14,14,01,991.57
2019,02,14,14,02,991.57
2019,02,14,14,03,991.50
2019,02,14,14,04,991.47
2019,02,14,14,05,991.47
2019,02,14,14,06,991.50
2019,02,14,14,07,991.50
2019,02,14,14,08,991.47
2019,02,14,14,09,991.43
2019,02,14,14,10,991.37
2019,02,14,14,11,991.33
2019,02,14,14,12,991.30
2019,02,14,14,13,991.43
2019,02,14,14,14,991.37
2019,02,14,14,15,991.37
2019,02,14,14,16,991.33
2019,02,14,14,17,991.43
2019,02,14,14,18,991.33
2019,02,14,14,19,991.33
2019,02,14,14,20,991.34
2019,02,14,14,21,991.47
2019,02,14,14,22,991.30
2019,02,14,14,23,991.30
2019,02,14,14,24,991.20
2019,02,14,14,25,991.13
2019,02,14,14,26,991.13
2019,02,14,14,27,991.09
2019,02,14,14,28,991.03
2019,02,14,14,29,990.96
2019,02,14,14,30,990.99
2019,02,14,14,31,990.99
2019,02,14,14,32,991.03
2019,02,14,14,33,990.96
2019,02,14,14,34,990.93
2019,02,14,14,35,990.82
2019,02,14,14,36,990.89
2019,02,14,14,37,990.93
2019,02,14,14,38,991.03
2019,02,14,14,39,990.99
2019,02,14,14,40,990.99
2019,02,14,14,41,990.99
2019,02,14,14,42,991.03
2019,02,14,14,43,991.06
2019,02,14,14,44,991.06
2019,02,14,14,45,990.99
2019,02,14,14,46,991.13
2019,02,14,14,47,991.06
2019,02,14,14,48,991.06
2019,02,14,14,49,991.09
2019,02,14,14,50,991.03
2019,02,14,14,51,991.03
2019,02,14,14,52,990.99
2019,02,14,14,53,991.03
2019,02,14,14,54,990.93
2019,02,14,14,55,991.05
2019,02,14,14,56,990.93
2019,02,14,14,57,990.96
2019,02,14,14,58,990.99
2019,02,14,14,59,991.06
2019,02,14,15,00,990.99
2019,02,14,15,01,991.06
2019,02,14,15,02,991.06
2019,02,14,15,03,991.03
2019,02,14,15,04,990.96
2019,02,14,15,05,991.03
2019,02,14,15,06,990.99
2019,02,14,15,07,991.16
2019,02,14,15,08,991.03
2019,02,14,15,09,990.99
2019,02,14,15,10,991.03
2019,02,14,15,11,991.06
2019,02,14,15,12,990.93
2019,02,14,15,13,990.96
2019,02,14,15,14,990.96
2019,02,14,15,15,990.96
2019,02,14,15,16,990.96
2019,02,14,15,17,991.03
2019,02,14,15,18,990.99
2019,02,14,15,19,990.89
2019,02,14,15,20,991.06
2019,02,14,15,21,991.06
2019,02,14,15,22,990.99
2019,02,14,15,23,990.99
2019,02,14,15,24,990.99
2019,02,14,15,25,990.99
2019,02,14,15,26,991.03
2019,02,14,15,27,991.06
2019,02,14,15,28,991.06
2019,02,14,15,29,991.06
2019,02,14,15,30,991.06
2019,02,14,15,31,991.06
2019,02,14,15,32,990.99
2019,02,14,15,33,990.99
2019,02,14,15,34,990.99
2019,02,14,15,35,990.99
2019,02,14,15,36,990.99
2019,02,14,15,37,991.03
2019,02,14,15,38,991.06
2019,02,14,15,39,991.06
2019,02,14,15,40,991.06
2019,02,14,15,41,990.99
2019,02,14,15,42,990.96
2019,02,14,15,43,991.06
2019,02,14,15,44,991.06
2019,02,14,15,45,991.03
2019,02,14,15,46,991.09
2019,02,14,15,47,991.13
2019,02,14,15,48,991.03
2019,02,14,15,49,991.16
2019,02,14,15,50,991.09
2019,02,14,15,51,991.03
2019,02,14,15,52,991.03
2019,02,14,15,53,991.06
2019,02,14,15,54,990.99
2019,02,14,15,55,991.09
2019,02,14,15,56,991.20
2019,02,14,15,57,991.09
2019,02,14,15,58,991.09
2019,02,14,15,59,991.03
2019,02,14,16,00,991.13
2019,02,14,16,01,991.16
2019,02,14,16,02,991.13
2019,02,14,16,03,991.06
2019,02,14,16,04,991.16
2019,02,14,16,05,991.13
2019,02,14,16,06,991.06
2019,02,14,16,07,991.13
2019,02,14,16,08,991.20
2019,02,14,16,09,991.16
2019,02,14,16,10,991.13
2019,02,14,16,11,991.13
2019,02,14,16,12,991.16
2019,02,14,16,13,991.13
2019,02,14,16,14,991.16
2019,02,14,16,15,991.09
2019,02,14,16,16,991.13
2019,02,14,16,17,991.13
2019,02,14,16,18,991.13
2019,02,14,16,19,991.16
2019,02,14,16,20,991.16
2019,02,14,16,21,991.16
2019,02,14,16,22,991.23
2019,02,14,16,23,991.20
2019,02,14,16,24,991.16